Jerome, ID

7:51 AM MST on February 20, 2017 (GMT -0700)
Jerome County

Weather History for KJER - April, 2013

Change the Weather History Date:

Tuesday, April 2, 2013

  Actual Average Record
Temperature  
Mean Temperature 53 °F 44 °F  
Max Temperature 66 °F 55 °F 77 °F (1990)
Min Temperature 40 °F 34 °F 17 °F (1953)
Degree Days  
Heating Degree Days 12 21  
Month to date heating degree days 29 42  
Since 1 July heating degree days 5377 5698  
Cooling Degree Days 0 0  
Month to date cooling degree days 0 0  
Year to date cooling degree days 0 0  
Growing Degree Days 2 (Base 50)    
Moisture  
Dew Point 36 °F    
Average Humidity 61    
Maximum Humidity 92    
Minimum Humidity 30    
Precipitation  
Precipitation 0.00 in 0.03 in 0.68 in (2003)
Month to date precipitation 0.10 0.07  
Year to date precipitation 1.60 3.09  
Sea Level Pressure  
Sea Level Pressure 30.02 in    
Wind  
Wind Speed 9 mph (SW)    
Max Wind Speed 18 mph    
Max Gust Speed 24 mph    
Visibility 10 miles    
Events      
T = Trace of Precipitation, MM = Missing Value Source: NWS Daily Summary

Daily Weather History Graph

Daily Weather History Graph

Search for Another Location

Airport or City:

Trip Planner

Search our weather history database for the weather conditions in past years. The results will help you decide how hot, cold, wet, or windy it might be!

Date:

Astronomy

Apr. 02, 2013 Rise Set
Actual Time 7:17 AM MDT 8:05 PM MDT
Civil Twilight 6:49 AM MDT 8:34 PM MDT
Nautical Twilight 6:15 AM MDT 9:08 PM MDT
Astronomical Twilight 5:40 AM MDT 9:43 PM MDT
Moon 2:19 AM MDT (4/2) 12:07 PM MDT (4/2)
Length of Visible Light 13h 44m
Length of Day
12h 47m
Waning Gibbous, 55% of the Moon is Illuminated
Apr 2
Waning Gibbous
Apr 2
Last Quarter
Apr 10
New
Apr 18
First Quarter
Apr 25
Full

Hourly Weather History & Observations

Time (MDT) Temp. Windchill Dew Point Humidity Pressure Visibility Wind Dir Wind Speed Gust Speed Precip Events Conditions
12:53 AM 45.0 °F 40.6 °F 39.0 °F 80% 29.97 in 10.0 mi South 8.1 mph - N/A   Partly Cloudy
1:53 AM 43.0 °F 40.3 °F 39.0 °F 86% 29.98 in 10.0 mi South 4.6 mph - N/A   Partly Cloudy
2:53 AM 42.1 °F 37.7 °F 37.9 °F 85% 29.98 in 10.0 mi SSE 6.9 mph - N/A   Clear
3:53 AM 42.1 °F 38.4 °F 37.9 °F 85% 29.98 in 10.0 mi SSE 5.8 mph - N/A   Clear
4:53 AM 39.9 °F 36.7 °F 37.0 °F 89% 29.99 in 10.0 mi SSE 4.6 mph - N/A   Clear
5:53 AM 42.1 °F 39.2 °F 37.0 °F 82% 30.00 in 10.0 mi South 4.6 mph - N/A   Clear
6:53 AM 43.0 °F 37.7 °F 37.0 °F 80% 30.01 in 10.0 mi SSW 9.2 mph - N/A   Clear
7:53 AM 42.1 °F 39.2 °F 37.0 °F 82% 30.05 in 10.0 mi SSW 4.6 mph - N/A   Clear
8:53 AM 44.1 °F 40.1 °F 37.9 °F 79% 30.07 in 10.0 mi SW 6.9 mph - N/A   Clear
9:53 AM 48.9 °F - 39.9 °F 71% 30.06 in 10.0 mi SSW 10.4 mph - N/A   Clear
11:53 AM 53.1 °F - 41.0 °F 64% 30.07 in 10.0 mi SW 10.4 mph - N/A   Clear
12:53 PM 55.9 °F - 42.1 °F 60% 30.06 in 10.0 mi WSW 12.7 mph - N/A   Unknown
1:53 PM 57.9 °F - 42.1 °F 56% 30.04 in 10.0 mi SW 9.2 mph 18.4 mph N/A   Clear
2:53 PM 62.1 °F - 41.0 °F 46% 30.02 in 10.0 mi WSW 13.8 mph 19.6 mph N/A   Clear
3:53 PM 64.0 °F - 39.0 °F 40% 30.01 in 10.0 mi West 13.8 mph - N/A   Clear
4:53 PM 64.0 °F - 37.0 °F 37% 29.99 in 10.0 mi WSW 13.8 mph 24.2 mph N/A   Clear
5:53 PM 64.9 °F - 32.0 °F 29% 29.98 in 10.0 mi West 17.3 mph 20.7 mph N/A   Clear
6:53 PM 63.0 °F - 30.0 °F 29% 29.99 in 10.0 mi West 16.1 mph - N/A   Clear
7:53 PM 57.9 °F - 28.9 °F 33% 30.00 in 10.0 mi WSW 12.7 mph - N/A   Clear
8:53 PM 54.0 °F - 30.9 °F 41% 30.02 in 10.0 mi SW 10.4 mph - N/A   Clear
9:53 PM 52.0 °F - 30.9 °F 45% 30.03 in 10.0 mi SW 8.1 mph - N/A   Clear
10:53 PM 50.0 °F - 30.9 °F 48% 30.03 in 10.0 mi SSW 9.2 mph - N/A   Clear
11:53 PM 48.0 °F - 30.0 °F 50% 30.03 in 10.0 mi South 4.6 mph - N/A   Clear